Regional Weather Roundup
Issued by NWS

Home | Current Version | Previous Version | Text Only | Print | Product List | Glossary On
Versions: 1 2 3 4 5 6 7 8 9 10 11 12 13 14 15 16 17 18 19 20 21 22 23 24 25 26 27 28 29 30 31 32 33 34 35 36 37 38 39 40 41 42 43 44 45 46 47 48 49 50
000
ASUS43 KIND 021259
RWRIN

WEATHER ROUNDUP FOR INDIANA
NATIONAL WEATHER SERVICE INDIANAPOLIS IN
900 AM EDT WED SEP 02 2015

NOTE: "FAIR" INDICATES FEW OR NO CLOUDS BELOW 12,000 FEET WITH NO
SIGNIFICANT WEATHER AND/OR OBSTRUCTIONS TO VISIBILITY.

* - STATION DOES NOT REPORT WEATHER SUCH AS PRECIPITATION OR FOG.

+ - STATION NOT QUALITY CONTROLLED BY THE NATIONAL WEATHER SERVICE.
    USE DATA WITH CAUTION...ESPECIALLY DEWPOINT AND RELATIVE
    HUMIDITY OBSERVATIONS.

INZ001>003-010>013-019-020-021400-
NORTHWEST INDIANA

CITY           SKY/WX    TMP DP  RH WIND       PRES   REMARKS
KNOX *+        SUNNY     70  70 100 SW5       30.09S
MONTICELLO +   MOSUNNY   70  70  99 S6        30.10S
RENSSELAER +   SUNNY     72  72 100 SW5       30.10S

$$

LMZ046-743>745-021400-
SOUTHERN LAKE MICHIGAN

STATION/POSITION TIME  TEMP    WIND        PRES    WAVE
                       AIR SEA DIR/SP/G            HT
                 (UTC) (F)     (DEG/KT/KT) (MB)    (FT)
MICHIGAN CITY    1200   72     180/  9/ 11   N/A
5NW MICH CITY    1200   73 72  210/  6/  8   N/A     1

$$

INZ004-005-014>016-021>024-021400-
NORTH CENTRAL INDIANA

CITY           SKY/WX    TMP DP  RH WIND       PRES   REMARKS
GOSHEN         SUNNY     72  69  90 SW6       30.09S FOG
SOUTH BEND     SUNNY     72  68  87 SW6       30.09S
WARSAW +       SUNNY     72  70  94 W5        30.10S

$$

INZ006>009-017-018-025>027-021400-
NORTHEAST INDIANA

CITY           SKY/WX    TMP DP  RH WIND       PRES   REMARKS
FORT WAYNE     SUNNY     72  68  87 W5        30.11S

$$

INZ028-029-035-036-043>045-051>053-021400-
WEST CENTRAL INDIANA

CITY           SKY/WX    TMP DP  RH WIND       PRES   REMARKS
CRAWFORDSVL +  SUNNY     70  68  95 CALM      30.13S
GREENCASTLE +  SUNNY     70  64  83 CALM      30.15R FOG
LAFAYETTE      SUNNY     71  67  87 SW3       30.11R FOG
TERRE HAUTE    SUNNY     72  68  87 CALM      30.14R FOG

$$

INZ030>032-037>040-046>048-054>057-064-065-021400-
CENTRAL INDIANA

CITY           SKY/WX    TMP DP  RH WIND       PRES   REMARKS
ANDERSON       MOSUNNY   73  66  78 SW6       30.15
COLUMBUS       SUNNY     72  68  88 CALM      30.15R FOG
FRANKFORT +    SUNNY    N/A N/A N/A S5        30.14S HAZE
GREENWOOD *+   SUNNY     73  68  83 CALM      30.15R
INDIANAPOLIS   MOSUNNY   73  68  84 SW6       30.13
-EAGLE CREEK   SUNNY     73  69  87 CALM      30.13R
KOKOMO *+      PTSUNNY   73  66  78 SW8       30.12S
MT COMFORT *+  SUNNY     72 N/A N/A CALM      30.14S
SHELBYVILLE    SUNNY     73  69  87 S5        30.14R FOG
ZIONSVILLE +   SUNNY     73  69  88 W3        30.14S

$$

INZ033-034-041-042-049-050-058-059-021400-
EAST CENTRAL INDIANA

CITY           SKY/WX    TMP DP  RH WIND       PRES   REMARKS
MUNCIE         SUNNY     73  68  84 SW8       30.13S

$$

INZ060-061-067>069-081>083-085>088-021400-
SOUTHWEST INDIANA

CITY           SKY/WX    TMP DP  RH WIND       PRES   REMARKS
EVANSVILLE     SUNNY     74  70  87 CALM      30.15R
HUNTINGBURG *+ SUNNY     72  68  88 CALM      30.15R

$$

INZ062-063-066-070>080-084-089>092-021400-
SOUTH CENTRAL AND SOUTHEAST INDIANA

CITY           SKY/WX    TMP DP  RH WIND       PRES   REMARKS
BLOOMINGTON    SUNNY     72  68  87 CALM      30.15R
MADISON *+     SUNNY     70  68  94 CALM      30.18R
SEYMOUR +      SUNNY     70  70 100 CALM      30.14S FOG

$$



USA.gov is the U.S. government's official web portal to all federal, state and local government web resources and services.